CW5586 Weather Reports


Display with metric or nautical units.
time (UTC)temp
F
wind
direction
speed
MPH
gust
MPH
rain 1hr
in
rain 24hr
in
rain mn
in
humidity
%
barometer
mb
20260504011104 50 0 0.0 2.0 0.05 0.11 0.11 94 1006.4
20260504010604 50 0 0.0 1.0 0.05 0.10 0.10 94 1006.4
20260504004604 50 188 0.0 3.0 0.04 0.09 0.09 94 1006.6
20260504003104 50 0 0.0 2.0 0.03 0.08 0.08 94 1006.6
20260504001603 50 188 1.0 2.0 0.02 0.06 0.06 93 1006.8
20260504001103 50 178 1.0 2.0 0.02 0.06 0.06 93 1006.7
20260504000114 50 0 0.0 2.0 0.03 0.06 0.06 93 1006.8
20260503234603 50 0 0.0 2.0 0.04 0.05 0.05 93 1006.9
20260503233603 50 178 2.0 2.0 0.05 0.05 0.05 93 1007.0
20260503231604 50 169 1.0 2.0 0.04 0.04 0.04 92 1007.3
20260503231103 50 163 1.0 2.0 0.04 0.04 0.04 92 1007.3
20260503224603 50 0 0.0 2.0 0.01 0.01 0.01 91 1007.3
20260503224104 50 141 0.0 2.0 0.00 0.00 0.00 91 1007.2
20260503223603 50 0 0.0 2.0 0.00 0.00 0.00 90 1007.2
20260503221603 50 170 1.0 2.0 0.00 0.00 0.00 90 1007.3
20260503214103 50 216 1.0 2.0 0.00 0.00 0.00 90 1007.7
20260503213603 50 227 1.0 2.0 0.00 0.00 0.00 89 1007.7
20260503211103 49 217 2.0 2.0 0.00 0.00 0.00 88 1007.8
20260503210114 49 208 1.0 5.0 0.00 0.00 0.00 87 1007.9
20260503203603 50 0 0.0 2.0 0.00 0.00 0.00 85 1008.2
20260503200603 51 0 0.0 2.0 0.00 0.00 0.00 83 1008.4
20260503194603 52 196 1.0 2.0 0.00 0.00 0.00 82 1008.7
20260503191603 52 0 0.0 2.0 0.00 0.00 0.00 81 1008.6
20260503191103 52 188 1.0 2.0 0.00 0.00 0.00 81 1008.6
20260503190114 53 223 1.0 2.0 0.00 0.00 0.00 81 1008.6
20260503184603 53 236 2.0 5.0 0.00 0.00 0.00 80 1008.6
20260503184103 53 212 1.0 5.0 0.00 0.00 0.00 80 1008.7
20260503183603 53 238 1.0 6.0 0.00 0.00 0.00 80 1008.8
20260503181604 54 220 3.0 10.0 0.00 0.00 0.00 80 1008.8
20260503180603 54 216 3.0 7.0 0.00 0.00 0.00 79 1008.7
20260503180114 54 232 5.0 7.0 0.00 0.00 0.00 78 1008.7
20260503174103 55 252 5.0 7.0 0.00 0.00 0.00 74 1008.7
20260503173604 55 238 3.0 5.0 0.00 0.00 0.00 74 1008.7
20260503173103 55 209 3.0 5.0 0.00 0.00 0.00 74 1008.7
20260503171103 55 236 1.0 5.0 0.00 0.00 0.00 73 1008.9
20260503170113 55 215 2.0 6.0 0.00 0.00 0.00 73 1008.9
20260503150603 57 244 7.0 3.0 0.00 0.00 0.00 69 1009.8
20260503140113 56 207 2.0 8.0 0.00 0.00 0.00 72 1010.1
20260503131104 53 286 7.0 10.0 0.00 0.00 0.00 79 1010.5
20260503130603 54 267 2.0 5.0 0.00 0.00 0.00 80 1010.6
20260503120114 50 199 7.0 8.0 0.00 0.00 0.00 86 1010.7
20260503110114 50 196 3.0 8.0 0.00 0.00 0.00 90 1010.9
20260503090114 50 219 5.0 8.0 0.00 0.00 0.00 92 1010.6
20260503081603 50 252 2.0 5.0 0.00 0.00 0.00 92 1010.4
20260503080604 50 189 1.0 3.0 0.00 0.00 0.00 92 1010.2
20260503080114 50 224 1.0 7.0 0.00 0.00 0.00 91 1010.2
20260503071604 50 193 2.0 7.0 0.00 0.00 0.00 90 1010.0
20260503054604 50 251 3.0 3.0 0.00 0.00 0.00 90 1009.6
20260503054103 50 47 1.0 9.0 0.00 0.00 0.00 90 1009.6
20260503043603 51 207 2.0 3.0 0.00 0.00 0.00 88 1009.4
20260503043103 51 243 2.0 7.0 0.00 0.00 0.00 88 1009.4
20260503040605 52 213 2.0 6.0 0.00 0.00 0.00 88 1009.5
20260503040114 52 260 7.0 7.0 0.00 0.00 0.00 87 1009.5
20260503034603 52 265 1.0 5.0 0.00 0.00 0.00 87 1009.4
20260503034103 52 242 2.0 7.0 0.00 0.00 0.00 86 1009.4
20260503031604 53 267 1.0 3.0 0.00 0.00 0.00 82 1009.4
20260503031103 53 289 1.0 6.0 0.00 0.00 0.00 82 1009.4
20260503030603 53 309 1.0 6.0 0.00 0.00 0.00 82 1009.3
20260503024603 53 275 1.0 3.0 0.00 0.00 0.00 82 1009.4
20260503023604 53 322 1.0 6.0 0.00 0.00 0.00 82 1009.4
20260503023103 53 301 2.0 7.0 0.00 0.00 0.00 82 1009.4
20260503021104 54 310 0.0 2.0 0.00 0.00 0.00 81 1009.3
20260503020604 54 286 1.0 2.0 0.00 0.00 0.00 81 1009.2
20260503020114 54 0 0.0 2.0 0.00 0.00 0.00 81 1009.3
20260503014604 54 280 1.0 2.0 0.00 0.00 0.00 81 1009.3
20260503013603 54 240 0.0 3.0 0.00 0.00 0.00 80 1009.5
20260503013103 54 279 1.0 3.0 0.00 0.00 0.00 80 1009.6
20260503011605 53 251 0.0 2.0 0.00 0.00 0.00 81 1009.7